Home   Weather   Leeds   Past weeks

Flag for United Kingdom Past Weather in Leeds, England, United Kingdom — Yesterday and Last 2 Weeks

Now
57 °F

Clear.


Feels Like: 55 °F
Forecast: 51 / 67 °F
Wind: 8 mph from West

Location: Leeds And Bradford

Current Time: Aug 31, 2016 at 10:52:47 PM

Latest Report: Aug 31, 2016 at 10:20 PM


Visibility: 10 mi

Pressure: 30.09 "Hg

Humidity: 88%

Dew Point: 54 °F

Location of LeedsLocation

Past Weather in Leeds — Graph

°F

Leeds Temperature Yesterday

Maximum temperature yesterday: 68 °F (at 3:50 PM)
Minimum temperature yesterday: 52 °F (at 3:20 AM)
Average temperature yesterday: 61 °F

High & Low Weather Summary for the Past Weeks

 TemperatureHumidityPressure
High77 °F (Aug 23, 3:50 PM)100% (Aug 16, 11:20 PM)30.24 "Hg (Aug 16, 11:20 PM)
Low50 °F (Aug 27, 2:20 AM)56% (Aug 26, 2:50 PM)29.45 "Hg (Aug 20, 10:50 AM)
Average60 °F88%29.97 "Hg
* Reported Aug 16 9:20 PM — Aug 31 9:20 PM, Leeds, Weather by CustomWeather, © 2016

Note: Actual official high and low records may vary slightly from our data, if they occured in-between our weather recording intervals... More about our weather records

Advertising

Leeds Weather History for the Previous 24 Hours

Scroll right to see more
 ConditionsComfort  
Time TempWeatherWind HumidityBarometerVisibility
9:20 PM
Wed, Aug 31
57 °FPassing clouds.10 mph88%30.12 "HgN/A
8:50 PM57 °FScattered clouds.8 mph88%30.12 "HgN/A
8:20 PM57 °FScattered clouds.9 mph88%30.09 "HgN/A
7:50 PM59 °FScattered clouds.7 mph82%30.09 "HgN/A
7:20 PM59 °FScattered clouds.9 mph82%30.09 "HgN/A
6:50 PM61 °FPassing clouds.15 mph72%30.09 "HgN/A
6:20 PM61 °FPassing clouds.15 mph77%30.07 "HgN/A
5:50 PM61 °FScattered clouds.17 mph72%30.07 "HgN/A
5:20 PM63 °FScattered clouds.15 mph68%30.07 "HgN/A
4:50 PM63 °FScattered clouds.18 mph68%30.07 "HgN/A
4:20 PM61 °FScattered clouds.15 mph72%30.07 "HgN/A
3:50 PM63 °FScattered clouds.17 mph73%30.07 "HgN/A
2:50 PM64 °FScattered clouds.18 mph64%30.04 "HgN/A
2:20 PM63 °FScattered clouds.15 mph68%30.04 "HgN/A
1:50 PM64 °FScattered clouds.16 mph68%30.04 "HgN/A
1:20 PM63 °FScattered clouds.14 mph77%30.04 "HgN/A
12:50 PM63 °FLight rain. Broken clouds.15 mph83%30.04 "HgN/A
12:20 PM63 °FPartly sunny.10 mph83%30.04 "HgN/A
11:50 AM61 °FPartly sunny.12 mph88%30.04 "HgN/A
11:20 AM63 °FPartly sunny.12 mph83%30.04 "HgN/A
10:50 AM61 °FPartly sunny.7 mph83%30.01 "HgN/A
10:20 AM61 °FScattered clouds.13 mph83%30.01 "HgN/A
9:50 AM61 °FPartly sunny.12 mph83%30.01 "HgN/A
9:20 AM59 °FPartly sunny.9 mph88%30.01 "HgN/A
8:50 AM59 °FScattered clouds.9 mph88%30.01 "HgN/A
8:20 AM59 °FScattered clouds.12 mph82%30.01 "HgN/A
7:50 AM59 °FScattered clouds.8 mph82%30.01 "HgN/A
7:20 AM57 °FScattered clouds.9 mph88%30.01 "HgN/A
6:50 AM57 °FPassing clouds.10 mph88%30.01 "HgN/A
6:20 AM55 °FPassing clouds.7 mph94%30.01 "HgN/A
5:50 AM55 °FPassing clouds.6 mph94%30.01 "HgN/A
5:20 AM55 °FPassing clouds.7 mph94%30.04 "HgN/A
4:50 AM55 °FPassing clouds.6 mph94%30.04 "HgN/A
4:20 AM55 °FPassing clouds.9 mph94%30.04 "HgN/A
3:50 AM57 °FClear.9 mph88%30.04 "Hg10 mi
2:50 AM57 °FClear.9 mph94%30.07 "Hg10 mi
2:20 AM57 °FClear.10 mph94%30.07 "Hg10 mi
1:50 AM57 °FClear.8 mph94%30.07 "Hg10 mi
1:20 AM59 °FClear.8 mph88%30.07 "Hg10 mi
12:50 AM57 °FClear.9 mph94%30.09 "Hg10 mi
12:20 AM59 °FClear.8 mph88%30.09 "Hg10 mi
11:50 PM
Tue, Aug 30
59 °FPassing clouds.5 mph88%30.09 "HgN/A
11:20 PM59 °FPassing clouds.3 mph94%30.09 "HgN/A
10:50 PM61 °FPassing clouds.7 mph88%30.12 "HgN/A
10:20 PM61 °FPassing clouds.7 mph88%30.12 "HgN/A
Weather by CustomWeather, © 2016

See weather overviewHow to use our weather pages